| time (UTC) | temp C | wind direction | speed KPH | gust KPH | rain 1hr cm | rain 24hr cm | rain mn cm | humidity % | barometer mb |
| 20260510180239 | 22 | 255 | 9.7 | 20.9 | 0.00 | 0.20 | 0.00 | 62 | 1013.6 |
| 20260510180050 | 22 | 313 | 6.4 | 20.9 | 0.00 | 0.20 | 0.00 | 61 | 1013.7 |
| 20260510180000 | 22 | 298 | 8.0 | 20.9 | 0.00 | 0.23 | 0.00 | 61 | 1013.4 |
| 20260510175450 | 22 | 290 | 9.7 | 19.3 | 0.00 | 0.23 | 0.00 | 60 | 1013.5 |
| 20260510174729 | 23 | 269 | 12.9 | 19.3 | 0.00 | 0.23 | 0.00 | 59 | 1013.4 |
| 20260510174548 | 22 | 284 | 9.7 | 19.3 | 0.00 | 0.28 | 0.00 | 60 | 1013.6 |
| 20260510174441 | 22 | 286 | 6.4 | 19.3 | 0.00 | 0.25 | 0.00 | 62 | 1013.4 |
| 20260510173724 | 22 | 281 | 6.4 | 19.3 | 0.00 | 0.28 | 0.00 | 60 | 1013.3 |
| 20260510173224 | 22 | 272 | 6.4 | 16.1 | 0.00 | 0.28 | 0.00 | 59 | 1013.3 |
| 20260510173037 | 22 | 285 | 8.0 | 17.7 | 0.00 | 0.28 | 0.00 | 61 | 1013.5 |
| 20260510172722 | 22 | 240 | 9.7 | 17.7 | 0.00 | 0.28 | 0.00 | 60 | 1013.3 |
| 20260510172216 | 22 | 271 | 8.0 | 19.3 | 0.00 | 0.28 | 0.00 | 59 | 1013.1 |
| 20260510171709 | 22 | 251 | 8.0 | 24.1 | 0.00 | 0.28 | 0.00 | 56 | 1013.3 |
| 20260510171537 | 22 | 196 | 9.7 | 24.1 | 0.00 | 0.28 | 0.00 | 55 | 1013.5 |
| 20260510171210 | 23 | 285 | 12.9 | 24.1 | 0.00 | 0.28 | 0.00 | 54 | 1013.1 |
| 20260510170703 | 22 | 267 | 9.7 | 20.9 | 0.00 | 0.28 | 0.00 | 57 | 1012.9 |
| 20260510170153 | 22 | 279 | 9.7 | 19.3 | 0.00 | 0.28 | 0.00 | 57 | 1013.1 |
| 20260510170049 | 22 | 316 | 8.0 | 20.9 | 0.00 | 0.28 | 0.00 | 56 | 1013.2 |
| 20260510165647 | 22 | 263 | 8.0 | 19.3 | 0.00 | 0.28 | 0.00 | 57 | 1013.0 |
| 20260510165142 | 22 | 67 | 9.7 | 19.3 | 0.00 | 0.28 | 0.00 | 56 | 1013.0 |
| 20260510164636 | 23 | 292 | 8.0 | 14.5 | 0.00 | 0.30 | 0.00 | 58 | 1013.0 |
| 20260510164553 | 22 | 260 | 6.4 | 14.5 | 0.00 | 0.36 | 0.00 | 58 | 1013.3 |
| 20260510164132 | 22 | 292 | 3.2 | 16.1 | 0.00 | 0.30 | 0.00 | 58 | 1012.9 |
| 20260510163844 | 22 | 268 | 8.0 | 16.1 | 0.00 | 0.30 | 0.00 | 58 | 1013.0 |
| 20260510163125 | 22 | 213 | 6.4 | 11.3 | 0.00 | 0.30 | 0.00 | 64 | 1012.8 |
| 20260510163045 | 22 | 233 | 4.8 | 12.9 | 0.00 | 0.36 | 0.00 | 63 | 1013.2 |
| 20260510162621 | 22 | 302 | 4.8 | 14.5 | 0.00 | 0.30 | 0.00 | 65 | 1013.0 |
| 20260510162116 | 22 | 211 | 4.8 | 14.5 | 0.00 | 0.30 | 0.00 | 61 | 1012.9 |
| 20260510161616 | 22 | 205 | 3.2 | 11.3 | 0.00 | 0.30 | 0.00 | 61 | 1012.8 |
| 20260510161547 | 22 | 205 | 3.2 | 11.3 | 0.00 | 0.36 | 0.00 | 65 | 1013.1 |
| 20260510161111 | 22 | 290 | 3.2 | 11.3 | 0.00 | 0.33 | 0.00 | 63 | 1012.8 |
| 20260510160827 | 22 | 272 | 4.8 | 11.3 | 0.00 | 0.36 | 0.00 | 64 | 1012.7 |
| 20260510160059 | 22 | 304 | 3.2 | 11.3 | 0.00 | 0.36 | 0.00 | 65 | 1012.8 |
| 20260510160051 | 22 | 304 | 3.2 | 11.3 | 0.00 | 0.36 | 0.00 | 64 | 1013.1 |
| 20260510155602 | 21 | 285 | 6.4 | 11.3 | 0.00 | 0.36 | 0.00 | 64 | 1012.7 |
| 20260510155317 | 22 | 217 | 4.8 | 16.1 | 0.00 | 0.36 | 0.00 | 68 | 1012.9 |
| 20260510154552 | 21 | 259 | 6.4 | 16.1 | 0.00 | 0.36 | 0.00 | 65 | 1013.2 |
| 20260510154547 | 21 | 259 | 8.0 | 16.1 | 0.00 | 0.36 | 0.00 | 67 | 1012.9 |
| 20260510154042 | 21 | 196 | 1.6 | 6.4 | 0.00 | 0.36 | 0.00 | 69 | 1012.8 |
| 20260510153541 | 20 | 207 | 1.6 | 6.4 | 0.00 | 0.36 | 0.00 | 73 | 1012.8 |
| 20260510153045 | 19 | 211 | 1.6 | 11.3 | 0.00 | 0.36 | 0.00 | 72 | 1013.2 |
| 20260510153036 | 20 | 211 | 3.2 | 8.0 | 0.00 | 0.36 | 0.00 | 73 | 1012.9 |
| 20260510152529 | 20 | 292 | 3.2 | 9.7 | 0.00 | 0.36 | 0.00 | 74 | 1012.9 |
| 20260510152024 | 19 | 205 | 4.8 | 9.7 | 0.00 | 0.36 | 0.00 | 75 | 1013.0 |
| 20260510151539 | 18 | 248 | 1.6 | 6.4 | 0.00 | 0.36 | 0.00 | 77 | 1013.5 |
| 20260510151520 | 18 | 247 | 1.6 | 6.4 | 0.00 | 0.36 | 0.00 | 77 | 1013.3 |
| 20260510151020 | 18 | 279 | 0.0 | 8.0 | 0.00 | 0.36 | 0.00 | 77 | 1013.1 |
| 20260510150515 | 18 | 280 | 1.6 | 8.0 | 0.00 | 0.36 | 0.00 | 78 | 1012.9 |
| 20260510150042 | 18 | 282 | 0.0 | 6.4 | 0.00 | 0.36 | 0.00 | 80 | 1013.2 |
| 20260510150013 | 18 | 305 | 1.6 | 6.4 | 0.00 | 0.36 | 0.00 | 81 | 1012.9 |
| 20260510145504 | 18 | 186 | 0.0 | 4.8 | 0.00 | 0.36 | 0.00 | 82 | 1013.1 |
| 20260510145219 | 17 | 186 | 0.0 | 3.2 | 0.00 | 0.36 | 0.00 | 82 | 1013.1 |
| 20260510144540 | 17 | 0 | 0.0 | 4.8 | 0.00 | 0.36 | 0.00 | 81 | 1013.4 |
| 20260510144455 | 17 | 187 | 0.0 | 4.8 | 0.00 | 0.36 | 0.00 | 82 | 1013.1 |
| 20260510143943 | 17 | 220 | 0.0 | 4.8 | 0.00 | 0.36 | 0.00 | 84 | 1013.1 |
| 20260510143437 | 17 | 221 | 1.6 | 6.4 | 0.00 | 0.36 | 0.00 | 83 | 1012.9 |
| 20260510143200 | 16 | 221 | 1.6 | 6.4 | 0.00 | 0.36 | 0.00 | 85 | 1013.0 |
| 20260510143044 | 16 | 0 | 0.0 | 6.4 | 0.00 | 0.36 | 0.00 | 82 | 1013.3 |
| 20260510142428 | 16 | 221 | 1.6 | 6.4 | 0.00 | 0.36 | 0.00 | 85 | 1013.1 |
| 20260510141921 | 16 | 222 | 0.0 | 4.8 | 0.00 | 0.36 | 0.00 | 88 | 1013.1 |
| 20260510141544 | 15 | 0 | 0.0 | 8.0 | 0.00 | 0.36 | 0.00 | 88 | 1013.4 |
| 20260510141417 | 16 | 222 | 0.0 | 6.4 | 0.00 | 0.36 | 0.00 | 90 | 1013.3 |
| 20260510140911 | 15 | 222 | 1.6 | 6.4 | 0.00 | 0.36 | 0.00 | 90 | 1013.3 |
| 20260510140409 | 15 | 242 | 1.6 | 6.4 | 0.00 | 0.36 | 0.00 | 92 | 1013.1 |
| 20260510140133 | 15 | 246 | 1.6 | 6.4 | 0.00 | 0.36 | 0.00 | 94 | 1013.1 |
| 20260510140045 | 15 | 246 | 1.6 | 6.4 | 0.00 | 0.36 | 0.00 | 93 | 1013.5 |
| 20260510135404 | 14 | 284 | 0.0 | 4.8 | 0.00 | 0.36 | 0.00 | 94 | 1013.0 |
| 20260510134905 | 14 | 286 | 1.6 | 4.8 | 0.00 | 0.36 | 0.00 | 95 | 1013.1 |
| 20260510134629 | 13 | 286 | 0.0 | 4.8 | 0.00 | 0.36 | 0.00 | 95 | 1013.1 |
| 20260510134539 | 13 | 286 | 1.6 | 4.8 | 0.00 | 0.36 | 0.00 | 94 | 1013.5 |
| 20260510134117 | 13 | 286 | 1.6 | 3.2 | 0.00 | 0.36 | 0.00 | 95 | 1013.1 |
| 20260510133354 | 13 | 286 | 0.0 | 3.2 | 0.00 | 0.36 | 0.00 | 96 | 1013.1 |
| 20260510133038 | 12 | 0 | 0.0 | 3.2 | 0.00 | 0.36 | 0.00 | 95 | 1013.3 |
| 20260510132848 | 13 | 286 | 0.0 | 3.2 | 0.00 | 0.36 | 0.00 | 96 | 1013.0 |
| 20260510132345 | 12 | 286 | 1.6 | 3.2 | 0.00 | 0.36 | 0.00 | 96 | 1012.9 |
| 20260510131836 | 12 | 286 | 0.0 | 3.2 | 0.00 | 0.36 | 0.00 | 96 | 1013.1 |
| 20260510131538 | 12 | 0 | 0.0 | 3.2 | 0.00 | 0.36 | 0.00 | 95 | 1013.3 |
| 20260510131332 | 12 | 286 | 1.6 | 3.2 | 0.00 | 0.36 | 0.00 | 96 | 1013.1 |
| 20260510131049 | 12 | 286 | 0.0 | 1.6 | 0.00 | 0.36 | 0.00 | 96 | 1013.1 |
| 20260510130326 | 12 | 286 | 0.0 | 1.6 | 0.00 | 0.36 | 0.00 | 96 | 1013.0 |
| 20260510130047 | 12 | 0 | 0.0 | 1.6 | 0.00 | 0.36 | 0.00 | 95 | 1013.3 |
| 20260510125821 | 12 | 286 | 0.0 | 1.6 | 0.00 | 0.36 | 0.00 | 96 | 1013.0 |
| 20260510125314 | 12 | 286 | 0.0 | 3.2 | 0.00 | 0.36 | 0.00 | 96 | 1013.0 |
| 20260510124804 | 12 | 286 | 0.0 | 3.2 | 0.00 | 0.36 | 0.00 | 96 | 1013.3 |
| 20260510124558 | 11 | 0 | 0.0 | 3.2 | 0.00 | 0.36 | 0.00 | 95 | 1013.5 |
| 20260510124258 | 12 | 286 | 0.0 | 1.6 | 0.00 | 0.36 | 0.00 | 96 | 1013.4 |
| 20260510124014 | 12 | 286 | 0.0 | 0.0 | 0.00 | 0.36 | 0.00 | 96 | 1013.1 |
| 20260510123247 | 11 | 286 | 0.0 | 4.8 | 0.00 | 0.36 | 0.00 | 96 | 1013.1 |
| 20260510123040 | 11 | 0 | 0.0 | 4.8 | 0.00 | 0.36 | 0.00 | 95 | 1013.4 |
| 20260510122747 | 11 | 286 | 1.6 | 4.8 | 0.00 | 0.36 | 0.00 | 96 | 1013.1 |
| 20260510122236 | 11 | 287 | 1.6 | 3.2 | 0.00 | 0.36 | 0.00 | 96 | 1012.9 |
| 20260510121733 | 11 | 287 | 0.0 | 3.2 | 0.00 | 0.36 | 0.00 | 96 | 1012.8 |
| 20260510121538 | 11 | 0 | 0.0 | 3.2 | 0.00 | 0.36 | 0.00 | 95 | 1013.2 |
| 20260510121208 | 11 | 287 | 0.0 | 3.2 | 0.00 | 0.36 | 0.00 | 96 | 1012.7 |
| 20260510120700 | 11 | 286 | 0.0 | 1.6 | 0.00 | 0.36 | 0.00 | 96 | 1012.7 |
| 20260510120155 | 11 | 286 | 0.0 | 4.8 | 0.00 | 0.36 | 0.00 | 96 | 1012.8 |
| 20260510120038 | 11 | 0 | 0.0 | 4.8 | 0.00 | 0.36 | 0.00 | 96 | 1013.1 |
| 20260510115912 | 11 | 286 | 0.0 | 4.8 | 0.00 | 0.36 | 0.00 | 96 | 1012.8 |
| 20260510115148 | 11 | 287 | 1.6 | 3.2 | 0.00 | 0.36 | 0.00 | 96 | 1012.5 |
| 20260510114638 | 11 | 287 | 0.0 | 1.6 | 0.00 | 0.36 | 0.00 | 96 | 1012.5 |
| 20260510114546 | 11 | 0 | 0.0 | 1.6 | 0.00 | 0.36 | 0.00 | 95 | 1012.8 |
| 20260510114133 | 11 | 287 | 0.0 | 1.6 | 0.00 | 0.36 | 0.00 | 96 | 1012.5 |
| 20260510113628 | 11 | 287 | 0.0 | 0.0 | 0.00 | 0.36 | 0.00 | 96 | 1012.3 |
| 20260510113114 | 11 | 287 | 0.0 | 3.2 | 0.00 | 0.36 | 0.00 | 96 | 1012.2 |
| 20260510113043 | 10 | 0 | 0.0 | 3.2 | 0.00 | 0.36 | 0.00 | 95 | 1012.5 |
| 20260510112610 | 11 | 287 | 1.6 | 3.2 | 0.00 | 0.36 | 0.00 | 96 | 1012.1 |
| 20260510112104 | 11 | 287 | 0.0 | 1.6 | 0.00 | 0.36 | 0.00 | 96 | 1011.8 |
| 20260510111559 | 10 | 0 | 0.0 | 3.2 | 0.00 | 0.36 | 0.00 | 95 | 1012.1 |
| 20260510111040 | 11 | 287 | 0.0 | 3.2 | 0.00 | 0.36 | 0.00 | 96 | 1011.7 |
| 20260510110756 | 10 | 287 | 0.0 | 0.0 | 0.00 | 0.36 | 0.00 | 96 | 1011.8 |
| 20260510110039 | 10 | 0 | 0.0 | 1.6 | 0.00 | 0.36 | 0.00 | 95 | 1012.0 |
| 20260510110029 | 11 | 287 | 0.0 | 1.6 | 0.00 | 0.36 | 0.00 | 96 | 1011.7 |
| 20260510105735 | 11 | 287 | 0.0 | 1.6 | 0.00 | 0.36 | 0.00 | 96 | 1011.6 |
| 20260510105231 | 11 | 287 | 0.0 | 0.0 | 0.00 | 0.36 | 0.00 | 96 | 1011.8 |
| 20260510104558 | 10 | 0 | 0.0 | 0.0 | 0.00 | 0.36 | 0.00 | 95 | 1012.2 |
| 20260510104505 | 11 | 287 | 0.0 | 0.0 | 0.00 | 0.36 | 0.00 | 96 | 1011.9 |
| 20260510104000 | 10 | 287 | 0.0 | 0.0 | 0.00 | 0.36 | 0.00 | 96 | 1011.8 |
| 20260510103455 | 10 | 287 | 0.0 | 0.0 | 0.00 | 0.36 | 0.00 | 96 | 1011.8 |
| 20260510103220 | 10 | 287 | 0.0 | 0.0 | 0.00 | 0.36 | 0.00 | 96 | 1011.8 |
| 20260510103044 | 10 | 0 | 0.0 | 0.0 | 0.00 | 0.36 | 0.00 | 95 | 1012.2 |
| 20260510102442 | 10 | 287 | 0.0 | 0.0 | 0.00 | 0.36 | 0.00 | 96 | 1011.8 |
| 20260510101937 | 10 | 287 | 0.0 | 0.0 | 0.00 | 0.36 | 0.00 | 96 | 1011.8 |
| 20260510101542 | 10 | 0 | 0.0 | 0.0 | 0.00 | 0.36 | 0.00 | 95 | 1012.3 |
| 20260510101425 | 10 | 287 | 0.0 | 0.0 | 0.00 | 0.36 | 0.00 | 96 | 1011.9 |
| 20260510100919 | 10 | 287 | 0.0 | 0.0 | 0.00 | 0.36 | 0.00 | 96 | 1011.9 |
| 20260510100414 | 10 | 287 | 0.0 | 0.0 | 0.00 | 0.36 | 0.00 | 96 | 1011.8 |
| 20260510100042 | 10 | 0 | 0.0 | 0.0 | 0.00 | 0.36 | 0.00 | 95 | 1011.9 |
| 20260510095908 | 10 | 287 | 0.0 | 0.0 | 0.00 | 0.36 | 0.00 | 96 | 1011.6 |
| 20260510095611 | 10 | 287 | 0.0 | 0.0 | 0.00 | 0.36 | 0.00 | 96 | 1011.4 |
| 20260510094851 | 10 | 287 | 0.0 | 0.0 | 0.00 | 0.36 | 0.00 | 95 | 1011.5 |
| 20260510094544 | 10 | 0 | 0.0 | 0.0 | 0.00 | 0.36 | 0.00 | 95 | 1011.6 |
| 20260510094345 | 10 | 287 | 0.0 | 0.0 | 0.00 | 0.36 | 0.00 | 95 | 1011.4 |
| 20260510093838 | 10 | 287 | 0.0 | 0.0 | 0.00 | 0.36 | 0.00 | 96 | 1011.3 |
| 20260510093334 | 10 | 287 | 0.0 | 0.0 | 0.00 | 0.36 | 0.00 | 96 | 1011.4 |
| 20260510093041 | 10 | 0 | 0.0 | 0.0 | 0.00 | 0.36 | 0.00 | 95 | 1011.7 |
| 20260510092832 | 10 | 287 | 0.0 | 0.0 | 0.00 | 0.36 | 0.00 | 96 | 1011.6 |
| 20260510092322 | 10 | 287 | 0.0 | 0.0 | 0.00 | 0.36 | 0.00 | 96 | 1011.2 |
| 20260510091817 | 10 | 287 | 0.0 | 0.0 | 0.00 | 0.36 | 0.00 | 96 | 1011.1 |
| 20260510091550 | 10 | 0 | 0.0 | 0.0 | 0.00 | 0.36 | 0.00 | 95 | 1011.4 |
| 20260510091540 | 10 | 287 | 0.0 | 0.0 | 0.00 | 0.36 | 0.00 | 96 | 1011.2 |
| 20260510091039 | 10 | 287 | 0.0 | 1.6 | 0.00 | 0.36 | 0.00 | 96 | 1011.0 |
| 20260510090258 | 10 | 287 | 0.0 | 1.6 | 0.00 | 0.36 | 0.00 | 95 | 1011.0 |
| 20260510090052 | 10 | 0 | 0.0 | 3.2 | 0.00 | 0.36 | 0.00 | 95 | 1011.4 |
| 20260510085753 | 10 | 287 | 0.0 | 3.2 | 0.00 | 0.36 | 0.00 | 95 | 1010.9 |
| 20260510085249 | 10 | 287 | 0.0 | 3.2 | 0.00 | 0.36 | 0.00 | 95 | 1011.2 |
| 20260510084744 | 10 | 287 | 0.0 | 3.2 | 0.00 | 0.36 | 0.00 | 95 | 1011.1 |
| 20260510084552 | 10 | 0 | 0.0 | 3.2 | 0.00 | 0.36 | 0.00 | 95 | 1011.5 |
| 20260510084243 | 10 | 287 | 0.0 | 1.6 | 0.00 | 0.36 | 0.00 | 95 | 1011.4 |
| 20260510083221 | 10 | 287 | 0.0 | 0.0 | 0.00 | 0.36 | 0.00 | 95 | 1011.4 |
| 20260510083041 | 10 | 0 | 0.0 | 1.6 | 0.00 | 0.36 | 0.00 | 95 | 1011.7 |
| 20260510082717 | 10 | 287 | 0.0 | 1.6 | 0.00 | 0.36 | 0.00 | 95 | 1011.4 |
| 20260510082217 | 10 | 287 | 0.0 | 1.6 | 0.00 | 0.36 | 0.00 | 95 | 1011.4 |
| 20260510081919 | 10 | 287 | 0.0 | 1.6 | 0.00 | 0.36 | 0.00 | 96 | 1011.3 |
| 20260510081544 | 10 | 0 | 0.0 | 0.0 | 0.00 | 0.36 | 0.00 | 95 | 1011.6 |
| 20260510081152 | 10 | 287 | 0.0 | 0.0 | 0.00 | 0.36 | 0.00 | 96 | 1011.5 |
| 20260510080650 | 10 | 287 | 0.0 | 0.0 | 0.00 | 0.36 | 0.00 | 96 | 1011.4 |
| 20260510080348 | 10 | 287 | 0.0 | 1.6 | 0.00 | 0.36 | 0.00 | 95 | 1011.2 |
| 20260510080040 | 10 | 0 | 0.0 | 3.2 | 0.00 | 0.36 | 0.00 | 95 | 1011.5 |
| 20260510075620 | 10 | 287 | 1.6 | 6.4 | 0.00 | 0.36 | 0.00 | 96 | 1011.3 |
| 20260510075348 | 10 | 287 | 0.0 | 6.4 | 0.00 | 0.36 | 0.00 | 95 | 1011.1 |
| 20260510074611 | 10 | 288 | 0.0 | 8.0 | 0.00 | 0.36 | 0.00 | 95 | 1011.3 |
| 20260510074543 | 10 | 0 | 0.0 | 11.3 | 0.00 | 0.36 | 0.00 | 95 | 1011.4 |
| 20260510074111 | 10 | 288 | 6.4 | 9.7 | 0.00 | 0.36 | 0.00 | 96 | 1011.6 |
| 20260510073602 | 10 | 296 | 1.6 | 9.7 | 0.00 | 0.36 | 0.00 | 95 | 1011.0 |
| 20260510073056 | 10 | 281 | 1.6 | 9.7 | 0.00 | 0.36 | 0.00 | 95 | 1011.1 |
| 20260510073042 | 10 | 263 | 0.0 | 4.8 | 0.00 | 0.36 | 0.00 | 95 | 1011.3 |
| 20260510072551 | 10 | 257 | 0.0 | 0.0 | 0.00 | 0.36 | 0.00 | 95 | 1010.4 |
| 20260510072039 | 10 | 257 | 0.0 | 0.0 | 0.00 | 0.36 | 0.00 | 95 | 1010.5 |
| 20260510071541 | 10 | 0 | 0.0 | 0.0 | 0.00 | 0.36 | 0.00 | 95 | 1010.7 |
| 20260510071537 | 10 | 257 | 0.0 | 0.0 | 0.00 | 0.36 | 0.00 | 95 | 1010.4 |
| 20260510071027 | 10 | 257 | 0.0 | 0.0 | 0.00 | 0.36 | 0.00 | 95 | 1010.4 |
| 20260510070529 | 10 | 257 | 0.0 | 0.0 | 0.00 | 0.36 | 0.00 | 95 | 1010.3 |
| 20260510070047 | 10 | 0 | 0.0 | 0.0 | 0.00 | 0.36 | 0.00 | 95 | 1010.8 |
| 20260510070023 | 10 | 257 | 0.0 | 0.0 | 0.00 | 0.36 | 0.00 | 95 | 1010.5 |
| 20260510065521 | 10 | 257 | 0.0 | 0.0 | 0.00 | 0.36 | 0.00 | 95 | 1010.4 |
| 20260510065015 | 10 | 257 | 0.0 | 0.0 | 0.00 | 0.36 | 0.00 | 95 | 1010.5 |
| 20260510064556 | 10 | 0 | 0.0 | 0.0 | 0.00 | 0.36 | 0.00 | 95 | 1010.8 |
| 20260510064504 | 10 | 257 | 0.0 | 0.0 | 0.00 | 0.36 | 0.00 | 95 | 1010.6 |
| 20260510063959 | 10 | 257 | 0.0 | 0.0 | 0.00 | 0.36 | 0.00 | 95 | 1010.6 |
| 20260510063454 | 10 | 257 | 0.0 | 3.2 | 0.00 | 0.36 | 0.00 | 95 | 1010.6 |
| 20260510063044 | 10 | 0 | 0.0 | 4.8 | 0.00 | 0.36 | 0.00 | 95 | 1010.8 |
| 20260510062947 | 10 | 257 | 0.0 | 4.8 | 0.00 | 0.36 | 0.00 | 95 | 1010.6 |
| 20260510062443 | 10 | 255 | 1.6 | 4.8 | 0.00 | 0.36 | 0.00 | 95 | 1010.7 |
| 20260510061936 | 10 | 122 | 1.6 | 3.2 | 0.00 | 0.36 | 0.00 | 95 | 1010.7 |
| 20260510061658 | 10 | 121 | 1.6 | 3.2 | 0.00 | 0.36 | 0.00 | 95 | 1010.7 |
| 20260510061547 | 9 | 121 | 0.0 | 3.2 | 0.00 | 0.36 | 0.00 | 95 | 1010.9 |
| 20260510060931 | 9 | 121 | 1.6 | 3.2 | 0.00 | 0.36 | 0.00 | 95 | 1010.6 |
| 20260510060431 | 9 | 120 | 0.0 | 0.0 | 0.00 | 0.36 | 0.00 | 95 | 1010.4 |
| 20260510060140 | 9 | 120 | 0.0 | 0.0 | 0.00 | 0.36 | 0.00 | 95 | 1010.2 |
| 20260510060044 | 9 | 0 | 0.0 | 0.0 | 0.00 | 0.36 | 0.00 | 95 | 1010.6 |
| 20260510055415 | 9 | 120 | 0.0 | 0.0 | 0.00 | 0.36 | 0.00 | 95 | 1010.2 |
| 20260510054902 | 9 | 120 | 0.0 | 0.0 | 0.00 | 0.36 | 0.00 | 95 | 1010.3 |
| 20260510054541 | 9 | 0 | 0.0 | 0.0 | 0.00 | 0.36 | 0.00 | 95 | 1010.6 |
| 20260510054351 | 9 | 120 | 0.0 | 0.0 | 0.00 | 0.36 | 0.00 | 95 | 1010.3 |
| 20260510053846 | 9 | 120 | 0.0 | 0.0 | 0.00 | 0.36 | 0.00 | 95 | 1010.3 |
| 20260510053340 | 9 | 120 | 0.0 | 0.0 | 0.00 | 0.36 | 0.00 | 95 | 1010.4 |
| 20260510053041 | 8 | 0 | 0.0 | 0.0 | 0.00 | 0.36 | 0.00 | 94 | 1010.7 |
| 20260510052839 | 9 | 120 | 0.0 | 0.0 | 0.00 | 0.36 | 0.00 | 95 | 1010.4 |
| 20260510052317 | 9 | 120 | 0.0 | 0.0 | 0.00 | 0.36 | 0.00 | 95 | 1010.4 |
| 20260510051811 | 9 | 120 | 0.0 | 0.0 | 0.00 | 0.36 | 0.00 | 95 | 1010.4 |
| 20260510051540 | 8 | 0 | 0.0 | 0.0 | 0.00 | 0.36 | 0.00 | 94 | 1010.8 |
| 20260510051526 | 9 | 120 | 0.0 | 0.0 | 0.00 | 0.36 | 0.00 | 95 | 1010.4 |
| 20260510050800 | 9 | 120 | 0.0 | 0.0 | 0.00 | 0.36 | 0.00 | 95 | 1010.5 |
| 20260510050255 | 9 | 120 | 0.0 | 0.0 | 0.00 | 0.36 | 0.00 | 95 | 1010.5 |
| 20260510050039 | 8 | 0 | 0.0 | 0.0 | 0.00 | 0.36 | 0.00 | 94 | 1010.8 |
| 20260510045241 | 9 | 120 | 0.0 | 0.0 | 0.00 | 0.36 | 0.00 | 95 | 1010.5 |
| 20260510044732 | 9 | 120 | 0.0 | 0.0 | 0.00 | 0.36 | 0.00 | 95 | 1010.6 |
| 20260510044550 | 8 | 0 | 0.0 | 0.0 | 0.00 | 0.36 | 0.00 | 94 | 1010.8 |
| 20260510044219 | 9 | 120 | 0.0 | 0.0 | 0.00 | 0.36 | 0.00 | 95 | 1010.6 |
| 20260510043935 | 8 | 120 | 0.0 | 0.0 | 0.00 | 0.36 | 0.00 | 95 | 1010.7 |
| 20260510043208 | 8 | 120 | 0.0 | 0.0 | 0.00 | 0.36 | 0.00 | 95 | 1010.6 |
| 20260510043042 | 8 | 0 | 0.0 | 0.0 | 0.00 | 0.36 | 0.00 | 94 | 1011.0 |
| 20260510042706 | 8 | 120 | 0.0 | 0.0 | 0.00 | 0.36 | 0.00 | 95 | 1010.6 |
| 20260510042157 | 8 | 120 | 0.0 | 0.0 | 0.00 | 0.36 | 0.00 | 95 | 1010.7 |
| 20260510041652 | 8 | 120 | 0.0 | 0.0 | 0.00 | 0.36 | 0.00 | 94 | 1010.7 |
| 20260510041539 | 8 | 0 | 0.0 | 0.0 | 0.00 | 0.36 | 0.00 | 94 | 1011.1 |
| 20260510041139 | 8 | 120 | 0.0 | 0.0 | 0.00 | 0.36 | 0.00 | 94 | 1010.7 |
| 20260510040634 | 8 | 120 | 0.0 | 0.0 | 0.00 | 0.36 | 0.00 | 94 | 1010.7 |
| 20260510040123 | 8 | 120 | 0.0 | 0.0 | 0.00 | 0.36 | 0.00 | 94 | 1010.7 |
| 20260510040041 | 8 | 0 | 0.0 | 0.0 | 0.00 | 0.36 | 0.00 | 94 | 1011.0 |
| 20260510035622 | 8 | 120 | 0.0 | 0.0 | 0.00 | 0.36 | 0.36 | 94 | 1010.7 |
| 20260510035111 | 8 | 120 | 0.0 | 0.0 | 0.00 | 0.36 | 0.36 | 94 | 1010.7 |
| 20260510034600 | 8 | 120 | 0.0 | 0.0 | 0.00 | 0.36 | 0.36 | 94 | 1010.7 |
| 20260510034544 | 8 | 0 | 0.0 | 0.0 | 0.00 | 0.36 | 0.36 | 93 | 1011.0 |
| 20260510034054 | 9 | 120 | 0.0 | 0.0 | 0.00 | 0.36 | 0.36 | 94 | 1010.7 |
| 20260510033553 | 9 | 120 | 0.0 | 0.0 | 0.00 | 0.36 | 0.36 | 94 | 1010.7 |
| 20260510033038 | 8 | 0 | 0.0 | 0.0 | 0.00 | 0.36 | 0.36 | 94 | 1010.9 |
| 20260510033030 | 9 | 120 | 0.0 | 0.0 | 0.00 | 0.36 | 0.36 | 94 | 1010.6 |
| 20260510032525 | 9 | 120 | 0.0 | 0.0 | 0.00 | 0.36 | 0.36 | 94 | 1010.6 |
| 20260510032022 | 9 | 120 | 0.0 | 0.0 | 0.00 | 0.36 | 0.36 | 94 | 1010.6 |
| 20260510031548 | 8 | 0 | 0.0 | 0.0 | 0.00 | 0.36 | 0.36 | 94 | 1011.0 |
| 20260510031514 | 9 | 120 | 0.0 | 0.0 | 0.00 | 0.36 | 0.36 | 94 | 1010.7 |
| 20260510031009 | 9 | 120 | 0.0 | 0.0 | 0.00 | 0.36 | 0.36 | 94 | 1010.4 |
| 20260510030457 | 9 | 120 | 0.0 | 0.0 | 0.00 | 0.36 | 0.36 | 94 | 1010.5 |
| 20260510030217 | 9 | 120 | 0.0 | 0.0 | 0.00 | 0.36 | 0.36 | 94 | 1010.5 |
| 20260510030048 | 9 | 0 | 0.0 | 0.0 | 0.00 | 0.36 | 0.36 | 93 | 1010.8 |
| 20260510025659 | 9 | 120 | 0.0 | 0.0 | 0.00 | 0.36 | 0.36 | 94 | 1010.5 |
| 20260510024934 | 9 | 120 | 0.0 | 0.0 | 0.00 | 0.36 | 0.36 | 94 | 1010.5 |
| 20260510024548 | 9 | 0 | 0.0 | 0.0 | 0.00 | 0.36 | 0.36 | 93 | 1010.7 |
| 20260510024428 | 10 | 120 | 0.0 | 0.0 | 0.00 | 0.36 | 0.36 | 94 | 1010.5 |
| 20260510023924 | 10 | 120 | 0.0 | 0.0 | 0.00 | 0.36 | 0.36 | 93 | 1010.4 |
| 20260510023635 | 10 | 120 | 0.0 | 0.0 | 0.00 | 0.36 | 0.36 | 94 | 1010.5 |
| 20260510023038 | 10 | 0 | 0.0 | 1.6 | 0.00 | 0.36 | 0.36 | 93 | 1010.7 |
| 20260510022915 | 10 | 120 | 0.0 | 0.0 | 0.00 | 0.36 | 0.36 | 94 | 1010.5 |
| 20260510022406 | 10 | 120 | 0.0 | 0.0 | 0.00 | 0.36 | 0.36 | 93 | 1010.4 |
| 20260510022121 | 10 | 120 | 0.0 | 0.0 | 0.00 | 0.36 | 0.36 | 93 | 1010.3 |
| 20260510021543 | 10 | 0 | 0.0 | 0.0 | 0.00 | 0.36 | 0.36 | 93 | 1010.7 |
| 20260510021349 | 10 | 120 | 0.0 | 0.0 | 0.00 | 0.36 | 0.36 | 93 | 1010.3 |
| 20260510020330 | 10 | 120 | 0.0 | 0.0 | 0.00 | 0.36 | 0.36 | 93 | 1010.3 |
| 20260510020040 | 10 | 0 | 0.0 | 0.0 | 0.00 | 0.36 | 0.36 | 93 | 1010.6 |
| 20260510015822 | 10 | 120 | 0.0 | 0.0 | 0.00 | 0.36 | 0.36 | 93 | 1010.2 |
| 20260510015309 | 10 | 120 | 0.0 | 0.0 | 0.00 | 0.36 | 0.36 | 93 | 1010.2 |
| 20260510014809 | 10 | 120 | 0.0 | 0.0 | 0.00 | 0.36 | 0.36 | 93 | 1010.2 |
| 20260510014539 | 10 | 0 | 0.0 | 0.0 | 0.00 | 0.36 | 0.36 | 92 | 1010.5 |
| 20260510014305 | 11 | 120 | 0.0 | 0.0 | 0.00 | 0.36 | 0.36 | 93 | 1010.3 |
| 20260510013802 | 11 | 120 | 0.0 | 0.0 | 0.00 | 0.36 | 0.36 | 93 | 1010.2 |
| 20260510013507 | 11 | 120 | 0.0 | 0.0 | 0.00 | 0.36 | 0.36 | 92 | 1010.2 |
| 20260510013042 | 11 | 0 | 0.0 | 0.0 | 0.00 | 0.36 | 0.36 | 92 | 1010.5 |
| 20260510012742 | 11 | 120 | 0.0 | 0.0 | 0.00 | 0.36 | 0.36 | 92 | 1010.1 |
| 20260510012236 | 11 | 120 | 0.0 | 0.0 | 0.00 | 0.36 | 0.36 | 92 | 1010.1 |
| 20260510011726 | 11 | 120 | 0.0 | 0.0 | 0.00 | 0.36 | 0.36 | 92 | 1010.1 |
| 20260510011538 | 11 | 0 | 0.0 | 0.0 | 0.00 | 0.36 | 0.36 | 92 | 1010.4 |
| 20260510011218 | 11 | 120 | 0.0 | 0.0 | 0.00 | 0.36 | 0.36 | 92 | 1010.0 |
| 20260510010715 | 11 | 120 | 0.0 | 0.0 | 0.00 | 0.36 | 0.36 | 91 | 1009.9 |
| 20260510010215 | 12 | 120 | 0.0 | 0.0 | 0.00 | 0.36 | 0.36 | 91 | 1009.9 |
| 20260510010044 | 12 | 0 | 0.0 | 0.0 | 0.00 | 0.36 | 0.36 | 91 | 1010.1 |
| 20260510005712 | 12 | 120 | 0.0 | 0.0 | 0.00 | 0.36 | 0.36 | 91 | 1009.9 |
| 20260510005156 | 12 | 120 | 0.0 | 0.0 | 0.00 | 0.36 | 0.36 | 91 | 1009.9 |
| 20260510004657 | 12 | 120 | 0.0 | 0.0 | 0.00 | 0.36 | 0.36 | 91 | 1009.9 |
| 20260510004545 | 12 | 0 | 0.0 | 0.0 | 0.00 | 0.36 | 0.36 | 90 | 1010.1 |
| 20260510004156 | 12 | 120 | 0.0 | 0.0 | 0.00 | 0.36 | 0.36 | 91 | 1009.8 |
| 20260510003908 | 12 | 120 | 0.0 | 0.0 | 0.00 | 0.36 | 0.36 | 91 | 1009.7 |
| 20260510003142 | 12 | 120 | 0.0 | 0.0 | 0.00 | 0.36 | 0.36 | 91 | 1009.7 |
| 20260510003051 | 12 | 0 | 0.0 | 1.6 | 0.00 | 0.36 | 0.36 | 90 | 1010.0 |
| 20260510002636 | 12 | 120 | 0.0 | 1.6 | 0.00 | 0.36 | 0.36 | 91 | 1009.7 |
| 20260510002137 | 12 | 120 | 0.0 | 1.6 | 0.00 | 0.36 | 0.36 | 90 | 1009.7 |
| 20260510001635 | 12 | 120 | 0.0 | 3.2 | 0.00 | 0.36 | 0.36 | 90 | 1009.6 |
| 20260510001540 | 12 | 0 | 0.0 | 3.2 | 0.00 | 0.36 | 0.36 | 89 | 1010.0 |
| 20260510001124 | 12 | 120 | 0.0 | 3.2 | 0.00 | 0.36 | 0.36 | 89 | 1009.7 |
| 20260510000619 | 13 | 120 | 0.0 | 0.0 | 0.00 | 0.36 | 0.36 | 88 | 1009.5 |
| 20260510000113 | 13 | 120 | 0.0 | 3.2 | 0.00 | 0.36 | 0.36 | 88 | 1009.4 |
| 20260510000041 | 13 | 0 | 0.0 | 3.2 | 0.00 | 0.36 | 0.36 | 88 | 1009.7 |
| 20260509235606 | 13 | 120 | 0.0 | 3.2 | 0.00 | 0.36 | 0.36 | 88 | 1009.4 |
| 20260509235100 | 13 | 120 | 0.0 | 1.6 | 0.00 | 0.36 | 0.36 | 88 | 1009.4 |
| 20260509234559 | 13 | 0 | 0.0 | 3.2 | 0.00 | 0.36 | 0.36 | 86 | 1009.6 |
| 20260509234555 | 13 | 120 | 0.0 | 1.6 | 0.00 | 0.36 | 0.36 | 87 | 1009.4 |
| 20260509234049 | 14 | 120 | 0.0 | 3.2 | 0.00 | 0.36 | 0.36 | 87 | 1009.5 |
| 20260509233553 | 14 | 120 | 1.6 | 4.8 | 0.00 | 0.36 | 0.36 | 86 | 1009.6 |
| 20260509233053 | 14 | 120 | 1.6 | 6.4 | 0.00 | 0.36 | 0.36 | 86 | 1009.8 |
| 20260509233043 | 14 | 120 | 3.2 | 6.4 | 0.00 | 0.36 | 0.36 | 86 | 1009.5 |
| 20260509232538 | 14 | 121 | 3.2 | 6.4 | 0.00 | 0.36 | 0.36 | 86 | 1009.5 |
| 20260509232032 | 14 | 171 | 1.6 | 6.4 | 0.00 | 0.36 | 0.36 | 87 | 1009.6 |
| 20260509231600 | 14 | 175 | 0.0 | 3.2 | 0.00 | 0.36 | 0.36 | 86 | 1009.9 |
| 20260509231534 | 14 | 175 | 0.0 | 3.2 | 0.00 | 0.36 | 0.36 | 86 | 1009.5 |
| 20260509231248 | 14 | 176 | 0.0 | 0.0 | 0.00 | 0.36 | 0.36 | 86 | 1009.6 |
| 20260509230526 | 14 | 176 | 0.0 | 0.0 | 0.00 | 0.36 | 0.36 | 86 | 1009.6 |
| 20260509230039 | 14 | 0 | 0.0 | 0.0 | 0.00 | 0.36 | 0.36 | 85 | 1009.7 |
| 20260509230015 | 14 | 176 | 0.0 | 0.0 | 0.00 | 0.36 | 0.36 | 85 | 1009.4 |
| 20260509225505 | 15 | 176 | 0.0 | 4.8 | 0.00 | 0.36 | 0.36 | 84 | 1009.5 |
| 20260509224959 | 15 | 176 | 1.6 | 4.8 | 0.00 | 0.36 | 0.36 | 84 | 1009.4 |
| 20260509224537 | 15 | 0 | 1.6 | 4.8 | 0.00 | 0.36 | 0.36 | 84 | 1009.6 |
| 20260509224453 | 15 | 192 | 1.6 | 4.8 | 0.00 | 0.36 | 0.36 | 84 | 1009.4 |
| 20260509223948 | 15 | 261 | 3.2 | 4.8 | 0.00 | 0.36 | 0.36 | 84 | 1009.4 |
| 20260509223439 | 15 | 261 | 0.0 | 4.8 | 0.00 | 0.36 | 0.36 | 84 | 1009.4 |
| 20260509223038 | 15 | 0 | 0.0 | 3.2 | 0.00 | 0.36 | 0.36 | 83 | 1009.5 |
| 20260509222935 | 15 | 260 | 0.0 | 3.2 | 0.00 | 0.36 | 0.36 | 83 | 1009.4 |
| 20260509222426 | 15 | 261 | 0.0 | 1.6 | 0.00 | 0.36 | 0.36 | 83 | 1009.4 |
| 20260509221921 | 15 | 260 | 0.0 | 1.6 | 0.00 | 0.36 | 0.36 | 83 | 1009.4 |
| 20260509221542 | 15 | 0 | 0.0 | 0.0 | 0.00 | 0.36 | 0.36 | 84 | 1009.8 |
| 20260509221419 | 15 | 260 | 0.0 | 0.0 | 0.00 | 0.36 | 0.36 | 85 | 1009.4 |
| 20260509220903 | 15 | 260 | 0.0 | 0.0 | 0.00 | 0.36 | 0.36 | 85 | 1009.5 |
| 20260509220357 | 15 | 260 | 0.0 | 3.2 | 0.00 | 0.36 | 0.36 | 84 | 1009.4 |
| 20260509220040 | 15 | 0 | 0.0 | 3.2 | 0.00 | 0.36 | 0.36 | 84 | 1009.8 |
| 20260509215852 | 15 | 260 | 0.0 | 3.2 | 0.00 | 0.36 | 0.36 | 85 | 1009.4 |
| 20260509215346 | 15 | 260 | 0.0 | 3.2 | 0.00 | 0.36 | 0.36 | 87 | 1009.5 |
| 20260509214840 | 15 | 260 | 0.0 | 3.2 | 0.00 | 0.36 | 0.36 | 87 | 1009.3 |
| 20260509214539 | 14 | 0 | 0.0 | 1.6 | 0.00 | 0.36 | 0.36 | 87 | 1009.5 |
| 20260509214339 | 15 | 261 | 0.0 | 1.6 | 0.00 | 0.36 | 0.36 | 87 | 1009.2 |
| 20260509213830 | 14 | 261 | 0.0 | 1.6 | 0.00 | 0.36 | 0.36 | 87 | 1009.2 |
| 20260509213325 | 14 | 261 | 0.0 | 1.6 | 0.00 | 0.36 | 0.36 | 87 | 1009.3 |
| 20260509213039 | 14 | 0 | 0.0 | 1.6 | 0.00 | 0.36 | 0.36 | 86 | 1009.6 |
| 20260509212820 | 14 | 261 | 0.0 | 1.6 | 0.00 | 0.36 | 0.36 | 87 | 1009.4 |
| 20260509212315 | 14 | 261 | 0.0 | 0.0 | 0.00 | 0.36 | 0.36 | 87 | 1009.3 |
| 20260509211810 | 14 | 261 | 0.0 | 0.0 | 0.00 | 0.36 | 0.36 | 86 | 1009.4 |
| 20260509211544 | 13 | 0 | 0.0 | 0.0 | 0.00 | 0.36 | 0.36 | 87 | 1009.6 |
| 20260509211534 | 14 | 261 | 0.0 | 0.0 | 0.00 | 0.36 | 0.36 | 87 | 1009.3 |
| 20260509210804 | 14 | 261 | 0.0 | 0.0 | 0.00 | 0.36 | 0.36 | 86 | 1009.4 |
| 20260509210259 | 14 | 261 | 0.0 | 1.6 | 0.00 | 0.36 | 0.36 | 85 | 1009.6 |
| 20260509210048 | 14 | 0 | 0.0 | 1.6 | 0.00 | 0.36 | 0.36 | 84 | 1009.8 |
| 20260509210014 | 14 | 261 | 0.0 | 1.6 | 0.03 | 0.36 | 0.36 | 85 | 1009.6 |
| 20260509205246 | 15 | 261 | 0.0 | 3.2 | 0.03 | 0.36 | 0.36 | 86 | 1009.6 |
| 20260509204742 | 15 | 261 | 0.0 | 4.8 | 0.03 | 0.36 | 0.36 | 87 | 1009.6 |
| 20260509204540 | 14 | 0 | 0.0 | 4.8 | 0.03 | 0.36 | 0.36 | 85 | 1009.8 |
| 20260509204242 | 14 | 261 | 3.2 | 4.8 | 0.03 | 0.36 | 0.36 | 84 | 1009.6 |
| 20260509203737 | 14 | 261 | 0.0 | 6.4 | 0.05 | 0.36 | 0.36 | 85 | 1009.5 |
| 20260509203231 | 14 | 261 | 3.2 | 6.4 | 0.05 | 0.36 | 0.36 | 86 | 1009.6 |
| 20260509203044 | 14 | 261 | 0.0 | 6.4 | 0.05 | 0.36 | 0.36 | 86 | 1009.9 |
| 20260509202730 | 14 | 259 | 0.0 | 0.0 | 0.05 | 0.36 | 0.36 | 87 | 1009.7 |
| 20260509202224 | 14 | 259 | 0.0 | 0.0 | 0.05 | 0.36 | 0.36 | 89 | 1009.8 |
| 20260509201711 | 14 | 259 | 0.0 | 0.0 | 0.05 | 0.36 | 0.36 | 90 | 1009.7 |
| 20260509201550 | 13 | 0 | 0.0 | 0.0 | 0.05 | 0.36 | 0.36 | 90 | 1010.0 |
| 20260509201441 | 13 | 259 | 0.0 | 0.0 | 0.05 | 0.36 | 0.36 | 91 | 1009.6 |
| 20260509200706 | 13 | 259 | 0.0 | 1.6 | 0.05 | 0.36 | 0.36 | 91 | 1009.6 |
| 20260509200200 | 13 | 259 | 0.0 | 1.6 | 0.05 | 0.36 | 0.36 | 91 | 1009.7 |
| 20260509200054 | 12 | 0 | 0.0 | 1.6 | 0.03 | 0.33 | 0.33 | 91 | 1009.9 |
| 20260509195654 | 13 | 259 | 0.0 | 0.0 | 0.03 | 0.33 | 0.33 | 91 | 1009.8 |
| 20260509194644 | 13 | 259 | 0.0 | 0.0 | 0.03 | 0.33 | 0.33 | 91 | 1010.0 |
| 20260509194537 | 12 | 0 | 0.0 | 1.6 | 0.03 | 0.33 | 0.33 | 90 | 1010.3 |
| 20260509194135 | 13 | 259 | 0.0 | 1.6 | 0.08 | 0.33 | 0.33 | 91 | 1010.1 |
| 20260509193627 | 13 | 259 | 0.0 | 1.6 | 0.08 | 0.30 | 0.30 | 91 | 1010.1 |
| 20260509193346 | 13 | 260 | 0.0 | 1.6 | 0.13 | 0.30 | 0.30 | 90 | 1010.3 |
| 20260509193047 | 12 | 0 | 0.0 | 1.6 | 0.10 | 0.30 | 0.30 | 89 | 1010.5 |
| 20260509192618 | 13 | 260 | 0.0 | 0.0 | 0.13 | 0.30 | 0.30 | 90 | 1010.4 |
| 20260509192112 | 13 | 260 | 0.0 | 0.0 | 0.15 | 0.30 | 0.30 | 90 | 1010.5 |
| 20260509191608 | 13 | 260 | 0.0 | 0.0 | 0.15 | 0.30 | 0.30 | 90 | 1010.5 |
| 20260509191544 | 12 | 0 | 0.0 | 0.0 | 0.15 | 0.30 | 0.30 | 90 | 1010.8 |
| 20260509191103 | 12 | 260 | 0.0 | 0.0 | 0.15 | 0.30 | 0.30 | 90 | 1010.6 |
| 20260509190559 | 12 | 260 | 0.0 | 0.0 | 0.15 | 0.30 | 0.30 | 90 | 1010.8 |
| 20260509190059 | 12 | 260 | 0.0 | 0.0 | 0.15 | 0.30 | 0.30 | 90 | 1010.8 |
| 20260509190039 | 12 | 0 | 0.0 | 0.0 | 0.15 | 0.30 | 0.30 | 89 | 1011.1 |
| 20260509185555 | 12 | 260 | 0.0 | 0.0 | 0.18 | 0.30 | 0.30 | 90 | 1010.8 |
| 20260509185048 | 12 | 260 | 0.0 | 0.0 | 0.18 | 0.30 | 0.30 | 89 | 1011.1 |
| 20260509184543 | 12 | 0 | 0.0 | 0.0 | 0.15 | 0.28 | 0.28 | 89 | 1011.6 |
| 20260509184541 | 12 | 260 | 0.0 | 0.0 | 0.18 | 0.28 | 0.28 | 90 | 1011.3 |
| 20260509184042 | 12 | 260 | 0.0 | 3.2 | 0.15 | 0.25 | 0.25 | 89 | 1011.2 |
| 20260509183537 | 12 | 260 | 0.0 | 6.4 | 0.15 | 0.23 | 0.23 | 89 | 1011.4 |
| 20260509183048 | 12 | 260 | 1.6 | 6.4 | 0.10 | 0.18 | 0.18 | 87 | 1011.7 |
| 20260509183034 | 12 | 260 | 3.2 | 6.4 | 0.10 | 0.18 | 0.18 | 88 | 1011.4 |
| 20260509182529 | 13 | 245 | 3.2 | 6.4 | 0.10 | 0.18 | 0.18 | 88 | 1011.3 |
| 20260509182022 | 13 | 240 | 0.0 | 4.8 | 0.08 | 0.15 | 0.15 | 87 | 1011.3 |
| 20260509181539 | 13 | 240 | 0.0 | 4.8 | 0.08 | 0.15 | 0.15 | 86 | 1011.6 |
| 20260509181514 | 13 | 240 | 0.0 | 4.8 | 0.08 | 0.15 | 0.15 | 87 | 1011.4 |
| 20260509181011 | 13 | 240 | 3.2 | 4.8 | 0.08 | 0.15 | 0.15 | 86 | 1011.3 |
| 20260509180729 | 13 | 240 | 3.2 | 4.8 | 0.08 | 0.15 | 0.15 | 86 | 1011.3 |